Location: Lichtensteig
(47.3376°N, 9.0841°E)
Time: 20:16:48
(UTC+00:00)

USA 306 - Pass Details

Date: 03 March 2021
Orbit: 564 x 577 km, 54.0° (Epoch: 13 April)

Event Time Altitude Azimuth Distance (km) Brightness Sun altitude
Rises 18:19:55 0° 279° (W) 2,773 8.5 -12.3°
Reaches altitude 10° 18:22:21 10° 289° (WNW) 1,874 6.9 -12.7°
Maximum altitude 18:26:14 33° 355° (N) 959 4.1 -13.4°
Enters shadow 18:29:14 15° 54° (NE) 1,567 4.7 -13.9°
